status,avgMeasuredTime,avgSpeed,extID,medianMeasuredTime,TIMESTAMP,vehicleCount,_id,REPORT_ID
OK,93,25,1009,93,2014-08-01T08:00:00,1,20747064,187801
OK,91,26,1009,91,2014-08-01T08:10:00,1,20747886,187801
OK,91,26,1009,91,2014-08-01T08:15:00,0,20748335,187801
OK,91,26,1009,91,2014-08-01T08:20:00,0,20748784,187801
OK,61,39,1009,61,2014-08-01T08:25:00,1,20749233,187801
OK,61,39,1009,61,2014-08-01T08:30:00,1,20749682,187801
OK,61,39,1009,61,2014-08-01T08:35:00,0,20750131,187801
OK,61,39,1009,61,2014-08-01T08:40:00,0,20750580,187801
OK,61,39,1009,61,2014-08-01T08:45:00,0,20751029,187801
OK,61,39,1009,61,2014-08-01T08:50:00,0,20751478,187801
OK,61,39,1009,61,2014-08-01T08:55:00,0,20751927,187801
OK,61,39,1009,61,2014-08-01T09:00:00,0,20752376,187801
OK,91,26,1009,91,2014-08-01T09:05:00,1,20752825,187801
OK,91,26,1009,91,2014-08-01T09:10:00,1,20753274,187801
OK,103,23,1009,103,2014-08-01T09:20:00,1,20754172,187801
OK,103,23,1009,103,2014-08-01T09:25:00,1,20754621,187801
OK,78,30,1009,78,2014-08-01T09:30:00,1,20755070,187801
OK,78,30,1009,78,2014-08-01T09:35:00,1,20755519,187801
OK,78,30,1009,78,2014-08-01T09:40:00,0,20755968,187801
OK,78,30,1009,78,2014-08-01T09:45:00,0,20756417,187801
OK,86,28,1009,86,2014-08-01T09:50:00,1,20756866,187801
OK,86,28,1009,86,2014-08-01T09:55:00,1,20757315,187801
OK,86,28,1009,86,2014-08-01T10:00:00,0,20757764,187801
OK,86,28,1009,86,2014-08-01T10:05:00,0,20758213,187801
OK,86,28,1009,86,2014-08-01T10:15:00,0,20759111,187801
OK,95,25,1009,95,2014-08-01T10:20:00,1,20759560,187801
OK,95,25,1009,95,2014-08-01T10:25:00,1,20760009,187801
OK,95,25,1009,95,2014-08-01T10:30:00,0,20760458,187801
OK,95,25,1009,95,2014-08-01T10:35:00,0,20760907,187801
OK,95,25,1009,95,2014-08-01T10:40:00,0,20761356,187801
OK,95,25,1009,95,2014-08-01T10:45:00,0,20761805,187801
OK,95,25,1009,95,2014-08-01T10:50:00,0,20762254,187801
OK,66,36,1009,66,2014-08-01T10:55:00,2,20762703,187801
OK,66,36,1009,66,2014-08-01T11:00:00,2,20763152,187801
OK,66,36,1009,66,2014-08-01T11:05:00,0,20763601,187801
OK,66,36,1009,66,2014-08-01T11:10:00,0,20764050,187801
OK,101,23,1009,101,2014-08-01T11:15:00,2,20764498,187801
OK,101,23,1009,101,2014-08-01T11:20:00,2,20764947,187801
OK,101,23,1009,101,2014-08-01T11:25:00,0,20765396,187801
OK,92,26,1009,92,2014-08-01T11:30:00,1,20765845,187801
OK,92,26,1009,92,2014-08-01T11:35:00,1,20766294,187801
OK,92,26,1009,92,2014-08-01T11:40:00,0,20766743,187801
OK,92,26,1009,92,2014-08-01T11:45:00,0,20767192,187801
OK,92,26,1009,92,2014-08-01T11:50:00,0,20767641,187801
OK,98,24,1009,98,2014-08-01T11:55:00,1,20768090,187801
OK,98,24,1009,98,2014-08-01T12:00:00,1,20768539,187801
OK,98,24,1009,98,2014-08-01T12:10:00,0,20769437,187801
OK,70,34,1009,70,2014-08-01T12:15:00,1,20769886,187801
OK,78,30,1009,78,2014-08-01T12:20:00,2,20770335,187801
OK,86,28,1009,86,2014-08-01T12:25:00,1,20770784,187801
OK,86,28,1009,86,2014-08-01T12:30:00,0,20771233,187801
OK,86,28,1009,86,2014-08-01T12:35:00,0,20771682,187801
OK,86,28,1009,86,2014-08-01T12:40:00,0,20772131,187801
OK,86,28,1009,86,2014-08-01T12:45:00,0,20772580,187801
OK,86,28,1009,86,2014-08-01T12:50:00,0,20773029,187801
OK,86,28,1009,86,2014-08-01T12:55:00,0,20773478,187801
OK,86,28,1009,86,2014-08-01T13:00:00,0,20773927,187801
OK,86,28,1009,86,2014-08-01T13:05:00,0,20774376,187801
OK,86,28,1009,86,2014-08-01T13:10:00,0,20774825,187801
OK,86,28,1009,86,2014-08-01T13:15:00,0,20775274,187801
OK,86,28,1009,86,2014-08-01T13:20:00,0,20775723,187801
OK,86,28,1009,86,2014-08-01T13:25:00,0,20776172,187801
OK,97,24,1009,97,2014-08-01T13:30:00,2,20776621,187801
OK,97,24,1009,97,2014-08-01T13:35:00,2,20777070,187801
OK,112,21,1009,112,2014-08-01T13:40:00,0,20777519,187801
OK,112,21,1009,112,2014-08-01T13:45:00,0,20777968,187801
OK,112,21,1009,112,2014-08-01T13:50:00,0,20778417,187801
OK,112,21,1009,112,2014-08-01T14:00:00,0,20779315,187801
OK,112,21,1009,112,2014-08-01T14:05:00,0,20779764,187801
OK,80,30,1009,80,2014-08-01T14:10:00,1,20780213,187801
OK,80,30,1009,80,2014-08-01T14:15:00,1,20780662,187801
OK,80,30,1009,80,2014-08-01T14:20:00,0,20781111,187801
OK,80,30,1009,80,2014-08-01T14:25:00,0,20781560,187801
OK,80,30,1009,80,2014-08-01T14:30:00,0,20782009,187801
OK,90,26,1009,90,2014-08-01T14:35:00,1,20782458,187801
OK,90,26,1009,90,2014-08-01T14:40:00,1,20782907,187801
OK,109,22,1009,109,2014-08-01T14:45:00,1,20783356,187801
OK,116,20,1009,116,2014-08-01T14:50:00,2,20783805,187801
OK,124,19,1009,124,2014-08-01T15:00:00,0,20784703,187801
OK,124,19,1009,124,2014-08-01T15:05:00,0,20785152,187801
OK,124,19,1009,124,2014-08-01T15:10:00,0,20785601,187801
OK,124,19,1009,124,2014-08-01T15:15:00,0,20786050,187801
OK,124,19,1009,124,2014-08-01T15:20:00,0,20786499,187801
OK,124,19,1009,124,2014-08-01T15:25:00,0,20786948,187801
OK,124,19,1009,124,2014-08-01T15:30:00,0,20787397,187801
OK,124,19,1009,124,2014-08-01T15:35:00,0,20787846,187801
OK,124,19,1009,124,2014-08-01T15:40:00,0,20788295,187801
OK,124,19,1009,124,2014-08-01T15:45:00,0,20788744,187801
OK,124,19,1009,124,2014-08-01T15:50:00,0,20789193,187801
OK,124,19,1009,124,2014-08-01T15:55:00,0,20789642,187801
OK,124,19,1009,124,2014-08-01T16:00:00,0,20790091,187801
OK,124,19,1009,124,2014-08-01T16:05:00,0,20790540,187801
OK,124,19,1009,124,2014-08-01T16:10:00,0,20790989,187801
OK,124,19,1009,124,2014-08-01T16:15:00,0,20791438,187801
OK,60,40,1009,60,2014-08-01T16:20:00,1,20791887,187801
OK,60,40,1009,60,2014-08-01T16:25:00,1,20792336,187801
OK,60,40,1009,60,2014-08-01T16:30:00,0,20792785,187801
OK,60,40,1009,60,2014-08-01T16:35:00,0,20793234,187801
OK,60,40,1009,60,2014-08-01T16:40:00,0,20793683,187801
OK,60,40,1009,60,2014-08-01T16:45:00,0,20794132,187801
OK,60,40,1009,60,2014-08-01T16:50:00,0,20794581,187801
OK,60,40,1009,60,2014-08-01T16:55:00,0,20795030,187801
OK,60,40,1009,60,2014-08-01T17:00:00,0,20795479,187801
OK,60,40,1009,60,2014-08-01T17:05:00,0,20795928,187801
OK,60,40,1009,60,2014-08-01T17:10:00,0,20796377,187801
OK,60,40,1009,60,2014-08-01T17:15:00,0,20796826,187801
OK,60,40,1009,60,2014-08-01T17:20:00,0,20797275,187801
OK,60,40,1009,60,2014-08-01T17:25:00,0,20797724,187801
OK,60,40,1009,60,2014-08-01T17:30:00,0,20798173,187801
OK,60,40,1009,60,2014-08-01T17:35:00,0,20798622,187801
OK,60,40,1009,60,2014-08-01T17:40:00,0,20799071,187801
OK,60,40,1009,60,2014-08-01T17:45:00,0,20799520,187801
OK,60,40,1009,60,2014-08-01T17:50:00,0,20799969,187801
OK,81,29,1009,81,2014-08-01T17:55:00,1,20800418,187801
OK,81,29,1009,81,2014-08-01T18:00:00,1,20800867,187801
OK,81,29,1009,81,2014-08-01T18:05:00,0,20801316,187801
OK,81,29,1009,81,2014-08-01T18:10:00,0,20801765,187801
OK,81,29,1009,81,2014-08-01T18:15:00,0,20802214,187801
OK,81,29,1009,81,2014-08-01T18:20:00,0,20802663,187801
OK,81,29,1009,81,2014-08-01T18:25:00,0,20803112,187801
OK,81,29,1009,81,2014-08-01T18:30:00,0,20803561,187801
OK,81,29,1009,81,2014-08-01T18:35:00,0,20804010,187801
OK,81,29,1009,81,2014-08-01T18:40:00,0,20804459,187801
OK,81,29,1009,81,2014-08-01T18:45:00,0,20804908,187801
OK,81,29,1009,81,2014-08-01T18:50:00,0,20805357,187801
OK,51,47,1009,51,2014-08-01T18:55:00,1,20805806,187801
OK,59,40,1009,59,2014-08-01T19:00:00,2,20806255,187801
OK,67,36,1009,67,2014-08-01T19:05:00,0,20806704,187801
OK,67,36,1009,67,2014-08-01T19:10:00,0,20807153,187801
OK,67,36,1009,67,2014-08-01T19:15:00,0,20807602,187801
OK,67,36,1009,67,2014-08-01T19:20:00,0,20808051,187801
OK,67,36,1009,67,2014-08-01T19:25:00,0,20808500,187801
OK,67,36,1009,67,2014-08-01T19:30:00,0,20808949,187801
OK,67,36,1009,67,2014-08-01T19:35:00,0,20809398,187801
OK,67,36,1009,67,2014-08-01T19:40:00,0,20809847,187801
OK,67,36,1009,67,2014-08-01T19:45:00,0,20810296,187801
OK,67,36,1009,67,2014-08-01T19:50:00,0,20810745,187801
OK,67,36,1009,67,2014-08-01T19:55:00,0,20811194,187801
OK,67,36,1009,67,2014-08-01T22:00:00,0,20816923,187801
OK,67,36,1009,67,2014-08-02T00:00:00,0,20823362,187801
OK,67,36,1009,67,2014-08-02T00:05:00,0,20823811,187801
OK,67,36,1009,67,2014-08-02T00:10:00,0,20824260,187801
OK,67,36,1009,67,2014-08-02T00:15:00,0,20824709,187801
OK,67,36,1009,67,2014-08-02T00:20:00,0,20825158,187801
OK,67,36,1009,67,2014-08-02T00:25:00,0,20825607,187801
OK,67,36,1009,67,2014-08-02T00:30:00,0,20826056,187801
OK,67,36,1009,67,2014-08-02T00:35:00,0,20826505,187801
OK,67,36,1009,67,2014-08-02T00:40:00,0,20826954,187801
OK,67,36,1009,67,2014-08-02T00:45:00,0,20827403,187801
OK,67,36,1009,67,2014-08-02T00:50:00,0,20827852,187801
OK,67,36,1009,67,2014-08-02T00:55:00,0,20828301,187801
OK,67,36,1009,67,2014-08-02T01:00:00,0,20828750,187801
OK,67,36,1009,67,2014-08-02T01:05:00,0,20829199,187801
OK,67,36,1009,67,2014-08-02T01:10:00,0,20829648,187801
OK,67,36,1009,67,2014-08-02T01:15:00,0,20830097,187801
OK,67,36,1009,67,2014-08-02T01:20:00,0,20830546,187801
OK,67,36,1009,67,2014-08-02T01:25:00,0,20830995,187801
OK,67,36,1009,67,2014-08-02T01:30:00,0,20831444,187801
OK,67,36,1009,67,2014-08-02T01:35:00,0,20831893,187801
OK,67,36,1009,67,2014-08-02T01:40:00,0,20832342,187801
OK,67,36,1009,67,2014-08-02T01:45:00,0,20832791,187801
OK,67,36,1009,67,2014-08-02T01:50:00,0,20833240,187801
OK,67,36,1009,67,2014-08-02T01:55:00,0,20833689,187801
OK,67,36,1009,67,2014-08-02T02:00:00,0,20834138,187801
OK,67,36,1009,67,2014-08-02T02:05:00,0,20834587,187801
OK,67,36,1009,67,2014-08-02T02:10:00,0,20835036,187801
OK,67,36,1009,67,2014-08-02T02:15:00,0,20835485,187801
OK,67,36,1009,67,2014-08-02T02:20:00,0,20835934,187801
OK,67,36,1009,67,2014-08-02T02:25:00,0,20836383,187801
OK,67,36,1009,67,2014-08-02T02:30:00,0,20836832,187801
OK,67,36,1009,67,2014-08-02T02:35:00,0,20837281,187801
OK,67,36,1009,67,2014-08-02T02:40:00,0,20837730,187801
OK,67,36,1009,67,2014-08-02T02:45:00,0,20838179,187801
OK,67,36,1009,67,2014-08-02T02:50:00,0,20838628,187801
OK,67,36,1009,67,2014-08-02T02:55:00,0,20839077,187801
OK,67,36,1009,67,2014-08-02T03:00:00,0,20839526,187801
OK,67,36,1009,67,2014-08-02T03:05:00,0,20839975,187801
OK,67,36,1009,67,2014-08-02T03:10:00,0,20840424,187801
OK,67,36,1009,67,2014-08-02T03:15:00,0,20840873,187801
OK,67,36,1009,67,2014-08-02T03:20:00,0,20841322,187801
OK,67,36,1009,67,2014-08-02T03:25:00,0,20841771,187801
OK,67,36,1009,67,2014-08-02T03:30:00,0,20842220,187801
OK,67,36,1009,67,2014-08-02T03:35:00,0,20842669,187801
OK,67,36,1009,67,2014-08-02T03:40:00,0,20843118,187801
OK,67,36,1009,67,2014-08-02T03:45:00,0,20843567,187801
OK,67,36,1009,67,2014-08-02T03:50:00,0,20844016,187801
OK,67,36,1009,67,2014-08-02T03:55:00,0,20844465,187801
OK,67,36,1009,67,2014-08-02T06:00:00,0,20851919,187801
OK,67,36,1009,67,2014-08-02T06:05:00,0,20852368,187801
OK,67,36,1009,67,2014-08-02T06:10:00,0,20852817,187801
OK,67,36,1009,67,2014-08-02T06:15:00,0,20853266,187801
OK,67,36,1009,67,2014-08-02T06:20:00,0,20853715,187801
OK,67,36,1009,67,2014-08-02T06:25:00,0,20854164,187801
OK,67,36,1009,67,2014-08-02T06:30:00,0,20854613,187801
OK,67,36,1009,67,2014-08-02T06:35:00,0,20855062,187801
OK,67,36,1009,67,2014-08-02T06:40:00,0,20855511,187801
OK,67,36,1009,67,2014-08-02T06:45:00,0,20855960,187801
OK,67,36,1009,67,2014-08-02T06:50:00,0,20856409,187801
OK,67,36,1009,67,2014-08-02T06:55:00,0,20856858,187801
OK,67,36,1009,67,2014-08-02T07:00:00,0,20857307,187801
OK,67,36,1009,67,2014-08-02T07:05:00,0,20857756,187801
OK,67,36,1009,67,2014-08-02T07:10:00,0,20858205,187801
OK,67,36,1009,67,2014-08-02T07:15:00,0,20858654,187801
OK,67,36,1009,67,2014-08-02T07:20:00,0,20859103,187801
OK,67,36,1009,67,2014-08-02T07:25:00,0,20859552,187801
OK,67,36,1009,67,2014-08-02T07:30:00,0,20860001,187801
OK,67,36,1009,67,2014-08-02T07:35:00,0,20860450,187801
OK,67,36,1009,67,2014-08-02T07:40:00,0,20860899,187801
OK,67,36,1009,67,2014-08-02T07:45:00,0,20861348,187801
OK,67,36,1009,67,2014-08-02T07:50:00,0,20861797,187801
OK,67,36,1009,67,2014-08-02T07:55:00,0,20862246,187801
OK,67,36,1009,67,2014-08-02T08:00:00,0,20862695,187801
OK,55,43,1009,55,2014-08-02T08:05:00,1,20863144,187801
OK,55,43,1009,55,2014-08-02T08:10:00,1,20863593,187801
OK,82,29,1009,82,2014-08-02T08:15:00,1,20864042,187801
OK,82,29,1009,82,2014-08-02T08:20:00,1,20864491,187801
OK,82,29,1009,82,2014-08-02T08:25:00,0,20864940,187801
OK,82,29,1009,82,2014-08-02T08:30:00,0,20865389,187801
OK,82,29,1009,82,2014-08-02T08:35:00,0,20865838,187801
OK,115,21,1009,115,2014-08-02T08:40:00,1,20866287,187801
OK,115,21,1009,115,2014-08-02T08:45:00,1,20866736,187801
OK,115,21,1009,115,2014-08-02T08:50:00,0,20867185,187801
OK,115,21,1009,115,2014-08-02T08:55:00,0,20867634,187801
OK,115,21,1009,115,2014-08-02T09:00:00,0,20868083,187801
OK,115,21,1009,115,2014-08-02T09:05:00,0,20868532,187801
OK,99,24,1009,99,2014-08-02T09:10:00,1,20868981,187801
OK,99,24,1009,99,2014-08-02T09:15:00,1,20869430,187801
OK,99,24,1009,99,2014-08-02T09:20:00,0,20869879,187801
OK,99,24,1009,99,2014-08-02T09:25:00,0,20870328,187801
OK,99,24,1009,99,2014-08-02T09:30:00,0,20870777,187801
OK,99,24,1009,99,2014-08-02T09:35:00,0,20871226,187801
OK,99,24,1009,99,2014-08-02T09:40:00,0,20871675,187801
OK,99,24,1009,99,2014-08-02T09:45:00,0,20872124,187801
OK,117,20,1009,117,2014-08-02T09:50:00,1,20872573,187801
OK,117,20,1009,117,2014-08-02T09:55:00,0,20873022,187801
OK,117,20,1009,117,2014-08-02T10:00:00,0,20873471,187801
OK,117,20,1009,117,2014-08-02T10:05:00,0,20873920,187801
OK,117,20,1009,117,2014-08-02T10:10:00,0,20874369,187801
OK,117,20,1009,117,2014-08-02T10:15:00,0,20874818,187801
OK,117,20,1009,117,2014-08-02T10:20:00,0,20875267,187801
OK,117,20,1009,117,2014-08-02T10:25:00,0,20875716,187801
OK,117,20,1009,117,2014-08-02T10:30:00,0,20876165,187801
OK,117,20,1009,117,2014-08-02T10:35:00,0,20876614,187801
OK,117,20,1009,117,2014-08-02T10:40:00,0,20877063,187801
OK,93,25,1009,93,2014-08-02T10:45:00,1,20877512,187801
OK,110,21,1009,110,2014-08-02T10:50:00,1,20877961,187801
OK,113,21,1009,113,2014-08-02T10:55:00,2,20878410,187801
OK,116,20,1009,116,2014-08-02T11:00:00,1,20878859,187801
OK,116,20,1009,116,2014-08-02T11:05:00,0,20879308,187801
OK,116,20,1009,116,2014-08-02T11:10:00,0,20879757,187801
OK,116,20,1009,116,2014-08-02T11:15:00,0,20880206,187801
OK,91,26,1009,91,2014-08-02T11:20:00,1,20880655,187801
OK,91,26,1009,91,2014-08-02T11:25:00,1,20881104,187801
OK,91,26,1009,91,2014-08-02T11:30:00,0,20881553,187801
OK,140,17,1009,140,2014-08-02T11:35:00,1,20882002,187801
OK,140,17,1009,140,2014-08-02T11:40:00,1,20882451,187801
OK,140,17,1009,140,2014-08-02T11:45:00,0,20882900,187801
OK,140,17,1009,140,2014-08-02T11:50:00,0,20883349,187801
OK,140,17,1009,140,2014-08-02T11:55:00,0,20883798,187801
OK,140,17,1009,140,2014-08-02T12:00:00,0,20884247,187801
OK,140,17,1009,140,2014-08-02T12:05:00,0,20884696,187801
OK,70,34,1009,70,2014-08-02T12:10:00,1,20885145,187801
OK,70,34,1009,70,2014-08-02T12:15:00,1,20885594,187801
OK,70,34,1009,70,2014-08-02T12:20:00,0,20886043,187801
OK,70,34,1009,70,2014-08-02T12:25:00,0,20886492,187801
OK,70,34,1009,70,2014-08-02T12:30:00,0,20886941,187801
OK,70,34,1009,70,2014-08-02T12:35:00,0,20887390,187801
OK,70,34,1009,70,2014-08-02T12:40:00,0,20887839,187801
OK,70,34,1009,70,2014-08-02T12:45:00,0,20888288,187801
OK,70,34,1009,70,2014-08-02T12:50:00,0,20888737,187801
OK,121,19,1009,121,2014-08-02T12:55:00,1,20889186,187801
OK,53,45,1009,53,2014-08-02T13:00:00,3,20889635,187801
OK,53,45,1009,53,2014-08-02T13:05:00,2,20890084,187801
OK,53,45,1009,53,2014-08-02T13:10:00,0,20890533,187801
OK,53,45,1009,53,2014-08-02T13:15:00,0,20890982,187801
OK,53,45,1009,53,2014-08-02T13:20:00,0,20891431,187801
OK,53,45,1009,53,2014-08-02T13:25:00,0,20891880,187801
OK,53,45,1009,53,2014-08-02T13:30:00,0,20892329,187801
OK,53,45,1009,53,2014-08-02T13:35:00,0,20892778,187801
OK,53,45,1009,53,2014-08-02T13:40:00,0,20893227,187801
OK,53,45,1009,53,2014-08-02T13:45:00,0,20893676,187801
OK,53,45,1009,53,2014-08-02T13:50:00,0,20894125,187801
OK,53,45,1009,53,2014-08-02T13:55:00,0,20894574,187801
OK,53,45,1009,53,2014-08-02T14:00:00,0,20895023,187801
OK,53,45,1009,53,2014-08-02T14:05:00,0,20895472,187801
OK,63,38,1009,63,2014-08-02T14:10:00,1,20895921,187801
OK,63,38,1009,63,2014-08-02T14:15:00,1,20896370,187801
OK,63,38,1009,63,2014-08-02T14:20:00,0,20896819,187801
OK,82,29,1009,82,2014-08-02T14:25:00,1,20897268,187801
OK,82,29,1009,82,2014-08-02T14:30:00,1,20897717,187801
OK,82,29,1009,82,2014-08-02T14:35:00,0,20898166,187801
OK,82,29,1009,82,2014-08-02T14:40:00,0,20898615,187801
OK,82,29,1009,82,2014-08-02T14:45:00,0,20899064,187801
OK,52,46,1009,52,2014-08-02T14:50:00,1,20899513,187801
OK,52,46,1009,52,2014-08-02T14:55:00,1,20899962,187801
OK,52,46,1009,52,2014-08-02T15:00:00,0,20900411,187801
OK,68,35,1009,68,2014-08-02T15:05:00,1,20900860,187801
OK,68,35,1009,68,2014-08-02T15:10:00,1,20901309,187801
OK,166,14,1009,166,2014-08-02T15:15:00,1,20901758,187801
OK,166,14,1009,166,2014-08-02T15:20:00,1,20902207,187801
OK,166,14,1009,166,2014-08-02T15:25:00,0,20902656,187801
OK,166,14,1009,166,2014-08-02T15:30:00,0,20903105,187801
OK,166,14,1009,166,2014-08-02T15:35:00,0,20903554,187801
OK,166,14,1009,166,2014-08-02T15:40:00,0,20904003,187801
OK,166,14,1009,166,2014-08-02T15:45:00,0,20904452,187801
OK,166,14,1009,166,2014-08-02T15:50:00,0,20904901,187801
OK,166,14,1009,166,2014-08-02T15:55:00,0,20905350,187801
OK,166,14,1009,166,2014-08-02T16:00:00,0,20905799,187801
OK,166,14,1009,166,2014-08-02T16:05:00,0,20906248,187801
OK,166,14,1009,166,2014-08-02T16:10:00,0,20906697,187801
OK,166,14,1009,166,2014-08-02T16:15:00,0,20907146,187801
OK,166,14,1009,166,2014-08-02T16:20:00,0,20907595,187801
OK,166,14,1009,166,2014-08-02T16:25:00,0,20908044,187801
OK,166,14,1009,166,2014-08-02T16:30:00,0,20908493,187801
OK,166,14,1009,166,2014-08-02T16:35:00,0,20908942,187801
OK,166,14,1009,166,2014-08-02T16:40:00,0,20909391,187801
OK,166,14,1009,166,2014-08-02T16:45:00,0,20909840,187801
OK,166,14,1009,166,2014-08-02T16:50:00,0,20910289,187801
OK,166,14,1009,166,2014-08-02T16:55:00,0,20910738,187801
OK,166,14,1009,166,2014-08-02T17:00:00,0,20911187,187801
OK,166,14,1009,166,2014-08-02T17:05:00,0,20911636,187801
OK,76,31,1009,76,2014-08-02T17:10:00,1,20912085,187801
OK,76,31,1009,76,2014-08-02T17:15:00,0,20912534,187801
OK,76,31,1009,76,2014-08-02T17:20:00,0,20912983,187801
OK,76,31,1009,76,2014-08-02T17:25:00,0,20913432,187801
OK,76,31,1009,76,2014-08-02T17:30:00,0,20913881,187801
OK,68,35,1009,68,2014-08-02T17:35:00,1,20914330,187801
OK,68,35,1009,68,2014-08-02T17:40:00,1,20914779,187801
OK,68,35,1009,68,2014-08-02T17:45:00,0,20915228,187801
OK,68,35,1009,68,2014-08-02T17:50:00,0,20915677,187801
OK,68,35,1009,68,2014-08-02T17:55:00,0,20916126,187801
OK,68,35,1009,68,2014-08-02T18:00:00,0,20916575,187801
OK,68,35,1009,68,2014-08-02T18:05:00,0,20917024,187801
OK,68,35,1009,68,2014-08-02T18:10:00,0,20917473,187801
OK,68,35,1009,68,2014-08-02T18:15:00,0,20917922,187801
OK,68,35,1009,68,2014-08-02T18:20:00,0,20918371,187801
OK,68,35,1009,68,2014-08-02T18:25:00,0,20918820,187801
OK,68,35,1009,68,2014-08-02T18:30:00,0,20919269,187801
OK,68,35,1009,68,2014-08-02T18:35:00,0,20919718,187801
OK,68,35,1009,68,2014-08-02T18:40:00,0,20920167,187801
OK,68,35,1009,68,2014-08-02T18:45:00,0,20920616,187801
OK,68,35,1009,68,2014-08-02T18:50:00,0,20921065,187801
OK,68,35,1009,68,2014-08-02T18:55:00,0,20921514,187801
OK,68,35,1009,68,2014-08-02T19:00:00,0,20921963,187801
OK,68,35,1009,68,2014-08-02T19:05:00,0,20922412,187801
OK,68,35,1009,68,2014-08-02T19:10:00,0,20922861,187801
OK,68,35,1009,68,2014-08-02T19:15:00,0,20923310,187801
OK,68,35,1009,68,2014-08-02T19:20:00,0,20923759,187801
OK,68,35,1009,68,2014-08-02T19:25:00,0,20924208,187801
OK,58,41,1009,58,2014-08-02T19:30:00,1,20924657,187801
OK,58,41,1009,58,2014-08-02T19:35:00,0,20925106,187801
OK,58,41,1009,58,2014-08-02T19:40:00,0,20925555,187801
OK,58,41,1009,58,2014-08-02T19:45:00,0,20926004,187801
OK,58,41,1009,58,2014-08-02T19:50:00,0,20926453,187801
OK,58,41,1009,58,2014-08-02T19:55:00,0,20926902,187801
OK,58,41,1009,58,2014-08-02T20:00:00,0,20927351,187801
OK,58,41,1009,58,2014-08-02T20:05:00,0,20927800,187801
OK,58,41,1009,58,2014-08-02T20:10:00,0,20928249,187801
OK,58,41,1009,58,2014-08-02T20:15:00,0,20928698,187801
OK,58,41,1009,58,2014-08-02T20:20:00,0,20929147,187801
OK,58,41,1009,58,2014-08-02T20:25:00,0,20929596,187801
OK,58,41,1009,58,2014-08-02T20:30:00,0,20930045,187801
OK,58,41,1009,58,2014-08-02T20:35:00,0,20930494,187801
OK,58,41,1009,58,2014-08-02T20:40:00,0,20930943,187801
OK,58,41,1009,58,2014-08-02T20:45:00,0,20931392,187801
OK,58,41,1009,58,2014-08-02T20:50:00,0,20931841,187801
OK,67,36,1009,67,2014-08-02T20:55:00,0,20932290,187801
OK,74,32,1009,74,2014-08-02T21:00:00,1,20932739,187801
OK,74,32,1009,74,2014-08-02T21:05:00,0,20933188,187801
OK,50,48,1009,50,2014-08-02T21:10:00,1,20933637,187801
OK,50,48,1009,50,2014-08-02T21:15:00,1,20934086,187801
OK,50,48,1009,50,2014-08-02T21:20:00,0,20934535,187801
OK,50,48,1009,50,2014-08-02T21:25:00,0,20934984,187801
OK,50,48,1009,50,2014-08-02T21:30:00,0,20935433,187801
OK,50,48,1009,50,2014-08-02T21:35:00,0,20935882,187801
OK,50,48,1009,50,2014-08-02T21:40:00,0,20936331,187801
OK,50,48,1009,50,2014-08-02T21:45:00,0,20936780,187801
OK,50,48,1009,50,2014-08-02T21:50:00,0,20937229,187801
OK,50,48,1009,50,2014-08-02T21:55:00,0,20937678,187801
OK,50,48,1009,50,2014-08-02T22:00:00,0,20938127,187801
OK,50,48,1009,50,2014-08-02T22:05:00,0,20938576,187801
OK,50,48,1009,50,2014-08-02T22:10:00,0,20939025,187801
OK,50,48,1009,50,2014-08-02T22:15:00,0,20939474,187801
OK,50,48,1009,50,2014-08-02T22:20:00,0,20939923,187801
OK,50,48,1009,50,2014-08-02T22:25:00,0,20940372,187801
OK,50,48,1009,50,2014-08-02T22:30:00,0,20940821,187801
OK,50,48,1009,50,2014-08-02T22:35:00,0,20941270,187801
OK,50,48,1009,50,2014-08-02T22:40:00,0,20941719,187801
OK,50,48,1009,50,2014-08-02T22:45:00,0,20942168,187801
OK,50,48,1009,50,2014-08-02T22:50:00,0,20942617,187801
OK,50,48,1009,50,2014-08-02T22:55:00,0,20943066,187801
OK,50,48,1009,50,2014-08-02T23:00:00,0,20943515,187801
OK,50,48,1009,50,2014-08-02T23:10:00,0,20943964,187801
OK,50,48,1009,50,2014-08-02T23:15:00,0,20944413,187801
OK,50,48,1009,50,2014-08-02T23:20:00,0,20944862,187801
OK,50,48,1009,50,2014-08-02T23:25:00,0,20945311,187801
OK,50,48,1009,50,2014-08-02T23:30:00,0,20945760,187801
OK,50,48,1009,50,2014-08-02T23:35:00,0,20946209,187801
OK,50,48,1009,50,2014-08-02T23:40:00,0,20946658,187801
OK,50,48,1009,50,2014-08-02T23:45:00,0,20947107,187801
OK,50,48,1009,50,2014-08-02T23:50:00,0,20947556,187801
OK,50,48,1009,50,2014-08-02T23:55:00,0,20948005,187801
OK,50,48,1009,50,2014-08-03T00:00:00,0,20948454,187801
OK,50,48,1009,50,2014-08-03T00:05:00,0,20948903,187801
OK,50,48,1009,50,2014-08-03T00:10:00,0,20949351,187801
OK,50,48,1009,50,2014-08-03T00:15:00,0,20949800,187801
OK,50,48,1009,50,2014-08-03T00:20:00,0,20950249,187801
OK,50,48,1009,50,2014-08-03T00:25:00,0,20950698,187801
OK,50,48,1009,50,2014-08-03T00:30:00,0,20951147,187801
OK,50,48,1009,50,2014-08-03T00:35:00,0,20951596,187801
OK,50,48,1009,50,2014-08-03T00:40:00,0,20952045,187801
OK,50,48,1009,50,2014-08-03T00:45:00,0,20952494,187801
OK,50,48,1009,50,2014-08-03T00:50:00,0,20952943,187801
OK,50,48,1009,50,2014-08-03T00:55:00,0,20953392,187801
OK,50,48,1009,50,2014-08-03T01:00:00,0,20953841,187801
OK,50,48,1009,50,2014-08-03T01:05:00,0,20954290,187801
OK,50,48,1009,50,2014-08-03T01:10:00,0,20954739,187801
OK,50,48,1009,50,2014-08-03T01:15:00,0,20955188,187801
OK,50,48,1009,50,2014-08-03T01:20:00,0,20955637,187801
OK,50,48,1009,50,2014-08-03T01:25:00,0,20956086,187801
OK,50,48,1009,50,2014-08-03T01:30:00,0,20956535,187801
OK,50,48,1009,50,2014-08-03T01:35:00,0,20956984,187801
OK,50,48,1009,50,2014-08-03T01:40:00,0,20957433,187801